{"data":{"norad_id":55501,"intl_designator":"2023-015BE","name":"STARLINK-5367","alt_names":[],"object_type":"PAYLOAD","status":"ACTIVE","operator":null,"country":"US","launch_date":"2023-02-02","launch_site_code":"AFETR","launch_vehicle":null,"mission":null,"orbit_class":"UNKNOWN","rcs_meters":null,"size_class":null,"mass_kg":null,"dimensions":null,"purposes":["comms"],"wikipedia_slug":null,"has_3d_model":false,"image_url":null,"decayed_at":null,"tle_current":{"epoch":"2026-05-24T18:03:58.813920Z","epoch_age_seconds":90280,"freshness":"FRESH","line1":"1 55501U 23015BE  26144.75276405  .00002996  00000+0  11838-3 0  9999","line2":"2 55501  43.0034 270.5312 0001544 263.1289  96.9387 15.27573038182225","mean_motion":15.27573038,"eccentricity":0.0001544,"inclination_deg":43.0034,"raan_deg":270.5312,"arg_perigee_deg":263.1289,"mean_anomaly_deg":96.9387,"bstar":0.00011838,"rev_number":18222,"period_min":94.267178339659,"perigee_km":482.01057249942,"apogee_km":484.12931320337,"semimajor_km":6861.2069428514,"source":"CELESTRAK","updated_at":"2026-05-25T13:38:17.833276Z"}}}